Retour au catalogue

STRV 1C

ActifScienceGTO
NORAD 26610·PAYLOAD·🇬🇧 United Kingdom

Lancé Nov 16, 2000 depuis Guiana Space Centre

Loading…

TLE

PériméSource: Space-Track

Époque: Sep 13, 2026, 14:58 UTC

1 26610U 00072C   26256.62392863 -.00000354  00000-0  35483-2 0  9992
2 26610   7.1388 341.8150 7338428 236.9626  31.5271  2.03546809191899

Suivez STRV 1C en temps réel avec AllMySat

Download on the App Store